Weather in Spasskoe

Russia / Nizhny Novgorod Oblast'     55°51′28″N   45°41′45″E
temp.,
°C
wind,
m/s
gust,
m/s
humid.,
%
clouds,
%
prec.,
mm/h
press.,
hPa
HPBL,
m
13 june, sun
sun1300:00+14se359640 0.0 101095
03:00+14se34955 0.0 101058
06:00+16se359380 0.0 1010177
09:00+20sse46785 0.1 1010615
12:00+23sse577111 2.4 10091146
15:00+22s5874100 2.9 10091113
18:00+20s5108597 1.8 1009470
21:00+17s51193100 2.8 1010253
14 june, mon
mon1400:00+15s3895100 0.0 1011170
03:00+15ssw369618 0.0 1012115
06:00+17sw36931 0.0 1013201
09:00+21sw457877 0.0 1014703
12:00+23sw3469100 0.1 10151289
15:00+24wsw336338 0.1 10151479
18:00+23wnw127613 0.2 101595
21:00+18ssw118476 0.3 101511
15 june, tue
tue1500:00+17wsw118764 0.0 101511
03:00+16nnw008886 0.0 101511
06:00+19e118499 0.0 101593
09:00+22ene2274100 0.0 1014494
12:00+24ese3371100 1.5 1014917
15:00+24se226682 1.7 10121176
18:00+21sse3588100 1.8 1012187
21:00+18sse3492100 2.9 101160
16 june, wed
wed1600:00+17ese229294 0.1 101112
03:00+16se229499 0.1 101035
06:00+19se359170 0.0 1009161
09:00+22sse357897 0.0 1009378
12:00+25sse356382 0.0 1008786
15:00+26s22590 0.0 10081007
18:00+25nnw23755 0.3 100884
21:00+18n6129585 1.8 1010399
17 june, thu
thu1700:00+16n6139786 1.2 1011504
03:00+15nnw6129746 1.2 1013467
06:00+14nnw612937 0.0 1015462
09:00+19n797515 0.0 1017970
12:00+21n68570 0.0 10181888
15:00+22nne47580 0.0 10182178
18:00+21nne36710 0.0 1020336
21:00+15n22730 0.0 102211